This is the latest recevied weather packets stored in our database for station/object KD5GAT-51. If no packets are shown the sender has not sent any weather packets the latest 10 day(s).
| Time | Temp. | Humidity | Pressure | Rain* | Wind** | Luminosity | Snow |
|---|---|---|---|---|---|---|---|
| 1777863335 | 21.67° C | 60% | 1019.4 hPa | - | - | - | - |
| 1777862435 | 21.67° C | 55% | 1019.5 hPa | - | - | - | - |
| 1777861535 | 21.67° C | 49% | 1019.4 hPa | - | - | - | - |
| 1777860635 | 21.67° C | 47% | 1019.3 hPa | - | - | - | - |
| 1777859735 | 22.22° C | 46% | 1019.1 hPa | - | - | - | - |
| 1777858835 | 22.22° C | 44% | 1019 hPa | - | - | - | - |
| 1777857934 | 22.78° C | 42% | 1018.8 hPa | - | - | - | - |
| 1777857034 | 23.33° C | 40% | 1018.8 hPa | - | - | - | - |
| 1777856134 | 23.89° C | 38% | 1018.7 hPa | - | - | - | - |
| 1777855234 | 25° C | 35% | 1018.9 hPa | - | - | - | - |
| 1777854334 | 26.11° C | 34% | 1018.8 hPa | - | - | - | - |
| 1777853434 | 26.11° C | 33% | 1018.9 hPa | - | - | - | - |
| 1777852533 | 27.78° C | 31% | 1019.1 hPa | - | - | - | - |
| 1777851633 | 28.33° C | 31% | 1019.1 hPa | - | - | - | - |
| 1777850733 | 28.89° C | 31% | 1019.4 hPa | - | - | - | - |
| 1777849833 | 28.89° C | 30% | 1019.4 hPa | - | - | - | - |
| 1777848933 | 28.89° C | 30% | 1019.4 hPa | - | - | - | - |
| 1777848032 | 28.89° C | 30% | 1019.5 hPa | - | - | - | - |
| 1777847132 | 29.44° C | 29% | 1019.7 hPa | - | - | - | - |
| 1777846232 | 29.44° C | 28% | 1020 hPa | - | - | - | - |
| 1777845340 | 29.44° C | 29% | 1020.2 hPa | - | - | - | - |
| 1777844440 | 28.33° C | 31% | 1020.7 hPa | - | - | - | - |
| 1777843539 | 28.89° C | 29% | 1020.7 hPa | - | - | - | - |
| 1777842639 | 29.44° C | 29% | 1021.1 hPa | - | - | - | - |
| 1777841739 | 28.89° C | 29% | 1021.4 hPa | - | - | - | - |
* Rain since midnight (hover to see other rain measurements)
** Current wind speed in m/s (hover to see current wind gust speed)